When you browse on this site, cookies collect data to enhance your experience and personalize the content and advertising you see.
Visit our Privacy Policy to learn more. By continuing to use the site, you agree to this use of cookies and data.
  • In United Kingdom
  • List of Countries
  • For 7 days
  • Water Temperature
  • Weather Map
  • Weather Widgets
  • user-avatar
    Login

    Hourly Weather Baden-Baden

    Today, 21 August, Wednesday

    Time Temperature Precipitation Wind Pressure Humidity
    00:00 +13°C° 0 mm 1 mps 738 mmHg 90%
    01:00 +12°C° 0 mm 1 mps 738 mmHg 88%
    02:00 +12°C° 0 mm 1 mps 738 mmHg 88%
    03:00 +12°C° 0 mm 1 mps 738 mmHg 88%
    04:00 +11°C° 0 mm 1 mps 738 mmHg 88%
    05:00 +12°C° 0 mm 1 mps 738 mmHg 86%
    06:00 +12°C° 0 mm 0 mps 738 mmHg 85%
    07:00 +13°C° 0 mm 0 mps 739 mmHg 83%
    08:00 +16°C° 0 mm 1 mps 739 mmHg 75%
    09:00 +18°C° 0 mm 1 mps 739 mmHg 67%
    10:00 +19°C° 0 mm 2 mps 739 mmHg 59%
    11:00 +20°C° 0 mm 2 mps 738 mmHg 55%
    12:00 +21°C° 0 mm 2 mps 738 mmHg 50%
    13:00 +22°C° 0 mm 3 mps 738 mmHg 46%
    14:00 +24°C° 0 mm 3 mps 738 mmHg 46%
    15:00 +24°C° 0 mm 3 mps 737 mmHg 46%
    16:00 +23°C° 0 mm 4 mps 737 mmHg 47%
    17:00 +21°C° 0 mm 3 mps 737 mmHg 54%
    18:00 +20°C° 0 mm 3 mps 737 mmHg 61%
    19:00 +18°C° 0 mm 3 mps 737 mmHg 68%
    20:00 +17°C° 0 mm 2 mps 737 mmHg 70%
    21:00 +16°C° 0 mm 2 mps 736 mmHg 73%
    22:00 +15°C° 0 mm 2 mps 736 mmHg 75%
    23:00 +15°C° 0 mm 2 mps 736 mmHg 76%

    Tomorrow, 22 August, Thursday

    Time Temperature Precipitation Wind Pressure Humidity
    00:00 +14°C° 0 mm 2 mps 736 mmHg 78%
    01:00 +14°C° 0 mm 2 mps 736 mmHg 79%
    02:00 +13°C° 0 mm 2 mps 736 mmHg 81%
    03:00 +13°C° 0 mm 2 mps 736 mmHg 84%
    04:00 +13°C° 0 mm 2 mps 736 mmHg 86%
    05:00 +13°C° 0 mm 2 mps 736 mmHg 86%
    06:00 +14°C° 0 mm 2 mps 736 mmHg 85%
    07:00 +15°C° 0 mm 2 mps 736 mmHg 84%
    08:00 +17°C° 0 mm 2 mps 736 mmHg 77%
    09:00 +19°C° 0 mm 2 mps 736 mmHg 70%
    10:00 +21°C° 0 mm 3 mps 737 mmHg 64%
    11:00 +22°C° 0 mm 3 mps 736 mmHg 60%
    12:00 +24°C° 0 mm 3 mps 736 mmHg 56%
    13:00 +26°C° 0 mm 3 mps 736 mmHg 52%
    14:00 +26°C° 0 mm 3 mps 736 mmHg 53%
    15:00 +26°C° 0 mm 3 mps 736 mmHg 53%
    16:00 +26°C° 0 mm 3 mps 736 mmHg 53%
    17:00 +25°C° 0 mm 3 mps 736 mmHg 60%
    18:00 +22°C° 0 mm 3 mps 736 mmHg 68%
    19:00 +20°C° 0 mm 2 mps 735 mmHg 75%
    20:00 +19°C° 0 mm 2 mps 736 mmHg 79%
    21:00 +18°C° 0 mm 2 mps 736 mmHg 82%
    22:00 +18°C° 0 mm 1 mps 736 mmHg 86%
    23:00 +16°C° 0 mm 1 mps 736 mmHg 86%

    Day after tomorrow, 23 August, Friday

    Time Temperature Precipitation Wind Pressure Humidity
    00:00 +16°C° 0 mm 1 mps 736 mmHg 86%
    01:00 +16°C° 0 mm 1 mps 735 mmHg 86%
    02:00 +15°C° 0 mm 1 mps 735 mmHg 87%
    03:00 +15°C° 0 mm 1 mps 735 mmHg 88%
    04:00 +15°C° 0 mm 1 mps 735 mmHg 88%
    05:00 +15°C° 0 mm 1 mps 735 mmHg 87%
    06:00 +16°C° 0 mm 1 mps 735 mmHg 85%
    07:00 +18°C° 0 mm 1 mps 735 mmHg 84%
    08:00 +19°C° 0 mm 2 mps 735 mmHg 77%
    09:00 +21°C° 0 mm 2 mps 736 mmHg 70%
    10:00 +23°C° 0 mm 2 mps 736 mmHg 63%
    11:00 +25°C° 0 mm 3 mps 735 mmHg 59%
    12:00 +26°C° 0 mm 3 mps 735 mmHg 55%
    13:00 +27°C° 0 mm 3 mps 735 mmHg 52%
    14:00 +27°C° 0 mm 3 mps 735 mmHg 51%
    15:00 +27°C° 0 mm 3 mps 734 mmHg 51%
    16:00 +27°C° 0 mm 3 mps 734 mmHg 50%
    17:00 +25°C° 0 mm 3 mps 734 mmHg 57%
    18:00 +24°C° 0 mm 3 mps 734 mmHg 63%
    19:00 +21°C° 0 mm 2 mps 734 mmHg 70%
    20:00 +20°C° 0 mm 2 mps 734 mmHg 73%
    21:00 +19°C° 0 mm 2 mps 734 mmHg 76%
    22:00 +19°C° 0 mm 1 mps 734 mmHg 79%
    23:00 +18°C° 0 mm 1 mps 734 mmHg 80%

    24 August, Saturday

    Time Temperature Precipitation Wind Pressure Humidity
    00:00 +18°C° 0 mm 1 mps 733 mmHg 81%
    01:00 +18°C° 0 mm 1 mps 733 mmHg 82%
    02:00 +18°C° 0 mm 1 mps 733 mmHg 83%
    03:00 +16°C° 0 mm 1 mps 733 mmHg 84%
    04:00 +16°C° 0 mm 1 mps 733 mmHg 84%
    05:00 +18°C° 0 mm 1 mps 733 mmHg 83%
    06:00 +18°C° 0 mm 1 mps 733 mmHg 82%
    07:00 +19°C° 0 mm 1 mps 733 mmHg 81%
    08:00 +21°C° 0 mm 1 mps 733 mmHg 75%
    09:00 +23°C° 0 mm 1 mps 733 mmHg 69%
    10:00 +25°C° 0 mm 1 mps 733 mmHg 63%
    11:00 +26°C° 0 mm 2 mps 733 mmHg 60%
    12:00 +27°C° 0 mm 2 mps 733 mmHg 57%
    13:00 +28°C° 0 mm 2 mps 733 mmHg 55%
    14:00 +28°C° 0 mm 2 mps 732 mmHg 55%
    15:00 +28°C° 0 mm 2 mps 732 mmHg 56%
    16:00 +28°C° 0 mm 2 mps 732 mmHg 57%
    17:00 +27°C° 0 mm 2 mps 732 mmHg 63%
    18:00 +25°C° 0 mm 1 mps 732 mmHg 69%
    19:00 +24°C° 0 mm 1 mps 731 mmHg 75%
    20:00 +23°C° 0 mm 1 mps 732 mmHg 79%
    21:00 +22°C° 0 mm 1 mps 732 mmHg 82%
    22:00 +21°C° 0 mm 1 mps 732 mmHg 86%
    23:00 +21°C° 0 mm 1 mps 732 mmHg 87%

    25 August, Sunday

    Time Temperature Precipitation Wind Pressure Humidity
    00:00 +20°C° 0 mm 1 mps 731 mmHg 88%
    01:00 +20°C° 0 mm 1 mps 731 mmHg 89%
    02:00 +20°C° 0 mm 1 mps 731 mmHg 90%
    03:00 +17°C° 0 mm 0 mps 731 mmHg 91%
    04:00 +17°C° 0 mm 0 mps 731 mmHg 91%
    05:00 +18°C° 0 mm 0 mps 731 mmHg 89%
    06:00 +18°C° 0 mm 0 mps 731 mmHg 88%
    07:00 +19°C° 0 mm 0 mps 731 mmHg 86%
    08:00 +21°C° 0 mm 0 mps 732 mmHg 78%
    09:00 +23°C° 0 mm 0 mps 732 mmHg 71%
    10:00 +27°C° 0 mm 1 mps 732 mmHg 63%
    11:00 +28°C° 0 mm 1 mps 732 mmHg 59%
    12:00 +29°C° 0 mm 1 mps 732 mmHg 55%
    13:00 +30°C° 0 mm 1 mps 731 mmHg 50%
    14:00 +30°C° 0 mm 1 mps 731 mmHg 50%
    15:00 +30°C° 0 mm 1 mps 731 mmHg 49%
    16:00 +30°C° 0 mm 1 mps 731 mmHg 48%
    17:00 +28°C° 0 mm 1 mps 731 mmHg 54%
    18:00 +24°C° 0 mm 0 mps 731 mmHg 60%
    19:00 +23°C° 0 mm 0 mps 730 mmHg 66%
    20:00 +22°C° 0 mm 0 mps 731 mmHg 69%
    21:00 +21°C° 0 mm 0 mps 731 mmHg 71%
    22:00 +22°C° 0 mm 1 mps 731 mmHg 74%
    23:00 +22°C° 0 mm 1 mps 731 mmHg 75%

    26 August, Monday

    Time Temperature Precipitation Wind Pressure Humidity
    00:00 +21°C° 0 mm 1 mps 731 mmHg 77%
    01:00 +21°C° 0 mm 1 mps 731 mmHg 78%
    02:00 +20°C° 0 mm 1 mps 731 mmHg 80%
    03:00 +20°C° 0 mm 1 mps 731 mmHg 81%
    04:00 +20°C° 0 mm 1 mps 731 mmHg 83%
    05:00 +20°C° 0 mm 1 mps 731 mmHg 81%
    06:00 +21°C° 0 mm 1 mps 731 mmHg 79%
    07:00 +21°C° 0 mm 1 mps 731 mmHg 78%
    08:00 +23°C° 0 mm 1 mps 732 mmHg 69%
    09:00 +26°C° 0 mm 1 mps 732 mmHg 61%
    10:00 +28°C° 0 mm 2 mps 732 mmHg 52%
    11:00 +29°C° 0 mm 2 mps 732 mmHg 47%
    12:00 +30°C° 0 mm 2 mps 732 mmHg 43%
    13:00 +31°C° 0 mm 2 mps 732 mmHg 38%
    14:00 +31°C° 0 mm 3 mps 732 mmHg 39%
    15:00 +31°C° 0 mm 3 mps 732 mmHg 39%
    16:00 +31°C° 0 mm 3 mps 732 mmHg 40%
    17:00 +30°C° 0 mm 2 mps 732 mmHg 46%
    18:00 +28°C° 0 mm 2 mps 732 mmHg 53%
    19:00 +26°C° 0 mm 2 mps 732 mmHg 59%
    20:00 +25°C° 0.2 mm 2 mps 732 mmHg 65%
    21:00 +23°C° 0.2 mm 2 mps 733 mmHg 70%
    22:00 +21°C° 0.2 mm 2 mps 733 mmHg 75%
    23:00 +20°C° 0.1 mm 2 mps 733 mmHg 78%
    Show more